Galesburg, IL

11:14 PM CST on January 20, 2017 (GMT -0600)
Galesburg

Weather History for KGBG - September, 2012

Change the Weather History Date:

Thursday, September 13, 2012

  Actual Average Record
Temperature  
Mean Temperature 58 °F -  
Max Temperature 64 °F 77 °F 95 °F (1956)
Min Temperature 51 °F 57 °F 36 °F (1953)
Degree Days  
Heating Degree Days 8    
Growing Degree Days 8 (Base 50)    
Moisture  
Dew Point 52 °F    
Average Humidity 82    
Maximum Humidity 96    
Minimum Humidity 57    
Precipitation  
Precipitation 0.00 in - - ()
Sea Level Pressure  
Sea Level Pressure 30.27 in    
Wind  
Wind Speed 8 mph (North)    
Max Wind Speed 21 mph    
Max Gust Speed 22 mph    
Visibility 10 miles    
Events Rain    
Averages and records for this station are not official NWS values.
T = Trace of Precipitation, MM = Missing Value Source: NWS Daily Summary

Daily Weather History Graph

Daily Weather History Graph

Search for Another Location

Airport or City:

Trip Planner

Search our weather history database for the weather conditions in past years. The results will help you decide how hot, cold, wet, or windy it might be!

Date:

Astronomy

Sep. 13, 2012 Rise Set
Actual Time 6:40 AM CDT 7:13 PM CDT
Civil Twilight 6:13 AM CDT 7:40 PM CDT
Nautical Twilight 5:40 AM CDT 8:13 PM CDT
Astronomical Twilight 5:07 AM CDT 8:46 PM CDT
Moon 3:59 AM CDT (9/13) 5:36 PM CDT (9/13)
Length of Visible Light 13h 27m
Length of Day
12h 32m
Waning Crescent, 7% of the Moon is Illuminated
Sep 13
Waning Crescent
Sep 15
New
Sep 22
First Quarter
Sep 29
Full
Oct 8
Last Quarter

Hourly Weather History & Observations

Time (CDT) Temp. Dew Point Humidity Pressure Visibility Wind Dir Wind Speed Gust Speed Precip Events Conditions
12:15 AM 64.8 °F 56.5 °F 74% 30.13 in 10.0 mi SSE 5.8 mph - N/A   Clear
12:35 AM 64.2 °F 56.7 °F 76% 30.14 in 10.0 mi SSE 4.6 mph - N/A   Clear
12:55 AM 64.2 °F 56.7 °F 76% 30.14 in 10.0 mi SSE 3.5 mph - N/A   Clear
1:15 AM 63.5 °F 56.7 °F 78% 30.14 in 10.0 mi South 4.6 mph - N/A   Clear
1:35 AM 63.5 °F 56.8 °F 79% 30.15 in 10.0 mi South 4.6 mph - N/A   Mostly Cloudy
1:55 AM 63.5 °F 57.2 °F 80% 30.15 in 10.0 mi SSE 4.6 mph - N/A   Overcast
2:15 AM 63.5 °F 57.6 °F 81% 30.15 in 10.0 mi South 4.6 mph - N/A   Overcast
2:35 AM 63.7 °F 57.7 °F 81% 30.15 in 10.0 mi South 4.6 mph - N/A   Mostly Cloudy
2:55 AM 63.9 °F 58.3 °F 82% 30.16 in 10.0 mi WNW 6.9 mph - N/A   Overcast
3:15 AM 64.6 °F 58.1 °F 79% 30.16 in 10.0 mi WSW 3.5 mph - N/A   Mostly Cloudy
3:35 AM 63.5 °F 58.1 °F 83% 30.16 in 10.0 mi Calm Calm - N/A   Mostly Cloudy
3:55 AM 63.0 °F 58.1 °F 84% 30.16 in 10.0 mi Calm Calm - N/A   Mostly Cloudy
4:15 AM 63.1 °F 57.9 °F 83% 30.16 in 10.0 mi Calm Calm - N/A   Mostly Cloudy
4:35 AM 62.8 °F 58.1 °F 85% 30.16 in 10.0 mi SSE 4.6 mph - N/A   Overcast
4:55 AM 63.5 °F 57.9 °F 82% 30.16 in 10.0 mi SE 3.5 mph - N/A   Overcast
5:15 AM 62.6 °F 58.1 °F 85% 30.18 in 10.0 mi Calm Calm - N/A   Scattered Clouds
5:35 AM 61.9 °F 58.1 °F 87% 30.18 in 10.0 mi Calm Calm - N/A   Scattered Clouds
5:55 AM 61.2 °F 58.1 °F 90% 30.20 in 10.0 mi NNW 6.9 mph - N/A   Mostly Cloudy
6:15 AM 61.2 °F 48.6 °F 63% 30.22 in 10.0 mi North 13.8 mph - N/A   Mostly Cloudy
6:35 AM 60.3 °F 45.1 °F 57% 30.23 in 10.0 mi North 13.8 mph 20.7 mph N/A   Mostly Cloudy
6:55 AM 59.5 °F 44.8 °F 58% 30.23 in 10.0 mi NNE 15.0 mph - N/A   Scattered Clouds
7:15 AM 59.0 °F 46.6 °F 63% 30.23 in 10.0 mi NNE 9.2 mph - N/A   Scattered Clouds
7:35 AM 59.5 °F 48.2 °F 66% 30.24 in 10.0 mi North 13.8 mph - N/A   Mostly Cloudy
7:55 AM 59.0 °F 50.0 °F 72% 30.24 in 10.0 mi NNE 13.8 mph - N/A   Scattered Clouds
8:15 AM 59.2 °F 51.4 °F 75% 30.25 in 10.0 mi North 17.3 mph - N/A   Mostly Cloudy
8:35 AM 58.6 °F 51.8 °F 78% 30.25 in 10.0 mi NNE 12.7 mph 21.9 mph N/A   Scattered Clouds
8:55 AM 59.2 °F 51.8 °F 77% 30.27 in 10.0 mi North 9.2 mph - N/A   Mostly Cloudy
9:15 AM 59.4 °F 51.3 °F 75% 30.27 in 10.0 mi North 17.3 mph - N/A   Overcast
9:35 AM 60.1 °F 50.4 °F 70% 30.28 in 10.0 mi NNE 17.3 mph 21.9 mph N/A   Overcast
9:55 AM 59.0 °F 48.6 °F 68% 30.29 in 10.0 mi North 20.7 mph - N/A   Overcast
10:15 AM 59.5 °F 48.7 °F 67% 30.29 in 10.0 mi North 19.6 mph - N/A   Overcast
10:35 AM 59.9 °F 48.4 °F 66% 30.28 in 10.0 mi NNE 17.3 mph - N/A   Overcast
10:55 AM 61.5 °F 49.5 °F 65% 30.28 in 10.0 mi NNE 15.0 mph 20.7 mph N/A   Overcast
11:15 AM 61.2 °F 49.1 °F 65% 30.29 in 10.0 mi NNE 13.8 mph - N/A   Overcast
11:35 AM 60.4 °F 48.9 °F 66% 30.28 in 10.0 mi NNE 16.1 mph - N/A   Overcast
11:55 AM 60.8 °F 48.7 °F 64% 30.30 in 10.0 mi North 16.1 mph - N/A   Overcast
12:15 PM 59.9 °F 48.0 °F 65% 30.30 in 10.0 mi North 16.1 mph - N/A   Overcast
12:35 PM 59.9 °F 48.0 °F 65% 30.30 in 10.0 mi North 11.5 mph - N/A   Overcast
12:55 PM 59.2 °F 47.3 °F 65% 30.29 in 10.0 mi North 17.3 mph 21.9 mph N/A   Overcast
1:15 PM 57.7 °F 48.4 °F 71% 30.30 in 10.0 mi North 12.7 mph 18.4 mph N/A Rain Rain
1:35 PM 54.5 °F 50.2 °F 85% 30.30 in 5.0 mi North 15.0 mph - N/A   Heavy Drizzle
1:55 PM 54.0 °F 50.7 °F 89% 30.30 in 10.0 mi NNE 12.7 mph - N/A   Light Drizzle
2:15 PM 54.0 °F 50.2 °F 87% 30.30 in 10.0 mi North 13.8 mph - N/A   Overcast
2:35 PM 54.1 °F 50.0 °F 86% 30.31 in 10.0 mi North 15.0 mph 18.4 mph N/A   Overcast
2:55 PM 53.8 °F 49.5 °F 85% 30.32 in 10.0 mi North 12.7 mph - N/A   Overcast
3:15 PM 53.2 °F 50.0 °F 89% 30.32 in 7.0 mi North 12.7 mph - N/A Rain Rain
3:35 PM 52.7 °F 50.2 °F 91% 30.32 in 7.0 mi NNE 10.4 mph - N/A   Drizzle
3:55 PM 52.7 °F 50.5 °F 92% 30.33 in 10.0 mi NNE 5.8 mph - N/A   Drizzle
4:15 PM 52.7 °F 50.9 °F 94% 30.30 in 10.0 mi North 13.8 mph - N/A Rain Rain
4:35 PM 52.7 °F 50.9 °F 94% 30.30 in 10.0 mi NNE 9.2 mph - N/A Rain Light Rain
4:55 PM 52.9 °F 51.1 °F 94% 30.31 in 10.0 mi North 6.9 mph - N/A Rain Light Rain
5:15 PM 53.2 °F 51.3 °F 93% 30.31 in 10.0 mi North 9.2 mph - N/A Rain Light Rain
5:35 PM 53.4 °F 51.8 °F 94% 30.31 in 10.0 mi North 10.4 mph - N/A Rain Rain
5:55 PM 53.2 °F 51.8 °F 95% 30.31 in 10.0 mi North 11.5 mph - N/A Rain Light Rain
6:15 PM 53.6 °F 51.8 °F 94% 30.32 in 10.0 mi North 8.1 mph - N/A Rain Light Rain
6:35 PM 53.6 °F 51.8 °F 94% 30.33 in 10.0 mi North 8.1 mph - N/A Rain Light Rain
6:55 PM 53.6 °F 51.8 °F 94% 30.33 in 10.0 mi North 5.8 mph - N/A Rain Light Rain
7:15 PM 53.6 °F 51.8 °F 94% 30.34 in 10.0 mi North 9.2 mph - N/A Rain Light Rain
7:35 PM 53.6 °F 52.0 °F 94% 30.34 in 10.0 mi North 9.2 mph - N/A Rain Light Rain
7:55 PM 53.6 °F 52.0 °F 94% 30.34 in 10.0 mi NNW 9.2 mph - N/A   Drizzle
8:15 PM 53.6 °F 52.2 °F 95% 30.34 in 10.0 mi North 8.1 mph - N/A Rain Light Rain
8:35 PM 53.8 °F 52.3 °F 95% 30.34 in 10.0 mi North 8.1 mph - N/A   Drizzle
8:55 PM 53.8 °F 51.4 °F 92% 30.35 in 10.0 mi NNE 5.8 mph - N/A Rain Light Rain
9:15 PM 53.6 °F 50.9 °F 91% 30.35 in 10.0 mi North 5.8 mph - N/A   Drizzle
9:35 PM 53.2 °F 50.9 °F 92% 30.36 in 10.0 mi North 5.8 mph - N/A   Overcast
9:55 PM 53.1 °F 50.5 °F 91% 30.36 in 10.0 mi North 4.6 mph - N/A   Overcast
10:15 PM 52.2 °F 49.5 °F 91% 30.36 in 10.0 mi NNE 6.9 mph - N/A   Mostly Cloudy
10:35 PM 52.0 °F 50.0 °F 93% 30.36 in 10.0 mi NNE 3.5 mph - N/A   Scattered Clouds
10:55 PM 51.8 °F 50.2 °F 94% 30.36 in 10.0 mi Calm Calm - N/A   Clear
11:15 PM 51.8 °F 50.2 °F 94% 30.36 in 10.0 mi North 3.5 mph - N/A   Scattered Clouds
11:35 PM 51.4 °F 50.4 °F 96% 30.35 in 10.0 mi North 4.6 mph - N/A   Overcast
11:55 PM 52.2 °F 51.1 °F 96% 30.35 in 4.0 mi North 4.6 mph - N/A   Overcast